Theta_e
305 305 304 306 308 308 308 307 306 306 307 308 308 309 309 305 306 303 308 307 306 304 303 302 301 302 302 302 304 303 308 311 311 310 305 304 305 307 307 310 315 320 325 329 330
304 305 305 307 307 306 306 306 306 307 307 308 308 309 306 305 307 307 308 305 305 304 303 303 302 302 300 301 302 303 304 306 304 302 302 302 302 302 303 302 314 319 315 315 315
305 304 304 306 305 306 306 307 308 308 308 309 309 309 304 306 307 308 307 302 301 302 302 302 302 301 300 300 301 301 303 302 302 301 302 302 301 301 301 302 303 301 302 309 313
302 303 303 303 303 307 307 308 309 308 308 308 308 308 303 306 306 303 300 302 302 302 301 300 299 299 299 299 300 300 301 302 302 302 302 302 301 301 300 301 300 300 301 301 311
303 303 303 301 304 307 307 307 307 307 307 307 307 306 306 304 304 303 303 300 301 301 301 300 300 300 301 301 301 301 301 302 302 302 301 302 302 299 300 300 299 300 302 301 305
304 303 303 301 302 305 306 307 307 306 306 307 307 306 306 305 304 304 303 301 301 301 301 301 300 301 301 301 301 301 303 302 302 303 303 303 302 302 301 301 300 301 302 302 300
303 303 301 301 304 304 304 305 305 306 306 306 307 305 306 305 303 301 300 300 299 300 301 301 301 301 301 302 302 302 302 301 302 302 303 303 304 303 302 302 301 301 301 302 301
302 304 305 303 302 302 303 304 304 303 303 300 301 304 303 304 299 299 298 298 299 299 300 301 301 301 302 301 302 302 302 303 303 303 304 303 305 304 302 301 301 301 301 301 301
302 304 303 302 302 301 302 302 302 299 300 302 305 304 303 300 298 298 297 297 297 299 301 301 301 301 301 301 300 299 297 302 303 303 303 303 304 302 301 301 301 300 299 300 301
302 303 302 302 301 302 301 303 302 301 301 301 301 298 299 297 297 297 298 298 299 300 301 302 301 301 301 302 297 294 298 303 303 303 304 304 304 304 303 302 301 300 299 298 299
304 302 303 302 302 302 301 303 298 300 298 297 297 297 297 297 297 298 299 299 300 301 298 302 304 302 299 299 301 302 302 302 302 302 304 304 304 303 302 303 304 302 301 301 298
303 303 303 302 302 301 299 299 298 297 295 297 296 296 297 297 298 296 299 300 297 297 302 294 300 300 302 303 304 305 305 305 304 304 304 305 305 305 304 304 303 303 302 301 300
303 303 304 303 302 302 298 298 298 297 297 297 294 295 297 296 296 296 299 299 296 297 297 302 301 301 303 304 305 304 305 305 305 305 305 305 306 305 304 304 303 303 303 300 300
303 304 304 303 304 301 300 298 296 297 292 295 295 296 295 296 297 299 300 300 301 298 300 301 301 303 303 303 304 306 304 306 308 308 309 305 305 304 303 303 303 303 302 302 301
304 304 304 302 302 301 298 296 295 298 293 294 293 295 296 297 297 300 300 301 301 297 300 300 301 302 302 303 304 306 304 305 306 306 307 306 308 301 302 302 300 299 299 297 298
305 304 303 302 301 296 295 295 297 293 289 289 294 294 292 295 298 299 299 300 300 301 300 300 301 301 302 304 302 302 302 302 304 307 305 300 303 298 301 299 298 298 298 299 299
305 304 302 300 301 294 295 297 296 289 288 287 291 294 294 295 297 298 299 300 300 297 294 294 295 302 305 303 303 301 297 296 302 300 299 300 304 299 298 298 298 298 298 298 297
305 303 298 296 294 294 297 293 290 284 283 293 294 294 296 296 295 296 299 298 302 299 297 287 295 292 300 302 303 301 303 304 304 305 304 302 304 301 296 297 296 297 299 301 300
303 298 295 294 293 295 294 290 289 289 294 293 294 288 287 296 294 292 296 298 300 298 295 294 293 297 299 304 301 299 302 301 304 296 302 296 297 302 295 296 295 296 299 301 300
299 297 295 294 292 297 291 293 287 292 294 294 290 291 286 288 293 289 293 298 300 297 297 295 298 292 297 302 300 297 300 300 300 302 301 301 298 295 294 295 294 295 296 298 299
297 298 296 292 295 291 294 286 284 292 293 293 293 288 294 292 297 290 294 297 299 299 297 297 298 296 299 299 300 299 299 299 305 303 302 303 298 295 294 295 294 293 294 294 295
298 298 293 293 293 292 288 282 292 293 293 294 295 294 291 296 297 290 294 295 297 294 294 296 300 301 298 300 299 299 298 298 302 300 298 301 298 294 293 293 293 292 291 292 292
298 298 294 295 293 288 284 287 290 293 293 294 293 295 296 294 295 295 295 297 298 295 294 296 294 299 300 300 300 298 298 299 299 301 298 296 295 294 292 292 292 291 290 290 290
297 299 294 292 290 291 286 288 289 291 294 293 295 295 296 291 294 292 296 297 296 295 297 297 300 302 303 303 303 300 298 297 298 297 299 297 295 292 291 291 291 290 290 290 290
297 298 295 294 291 294 294 291 291 289 293 293 292 294 293 290 293 291 296 295 295 295 294 291 286 296 295 295 303 300 297 296 299 298 298 297 295 293 291 290 290 290 290 290 290
296 295 293 292 294 295 296 295 290 292 292 293 291 294 294 289 294 295 295 294 294 292 294 292 285 290 290 299 302 299 298 296 296 298 297 299 296 293 291 290 289 289 289 289 289
296 295 295 295 295 294 295 295 294 292 293 294 293 294 294 294 292 292 293 292 292 292 293 290 284 284 291 295 298 295 298 294 295 297 297 299 297 293 291 290 289 289 289 288 288
Wind_Speed
10 13 12 11 13 14 14 15 16 16 16 17 18 19 22 23 18 11 10 7 10 16 17 16 17 19 14 2 3 3 2 3 4 3 7 14 11 7 12 8 10 10 7 8 8
11 12 11 11 13 14 14 14 14 15 15 15 16 18 21 21 15 9 5 10 13 16 17 16 9 16 5 3 3 2 3 4 4 8 12 14 11 10 10 18 6 6 14 21 17
8 11 11 13 15 13 13 13 14 15 16 17 17 18 20 16 2 2 4 11 14 12 13 15 12 6 3 5 2 4 4 6 10 17 12 13 17 6 9 6 6 11 17 13 9
9 10 13 16 12 13 15 16 15 15 15 16 16 18 17 9 4 3 9 11 14 16 12 12 5 6 3 3 6 5 9 10 9 13 18 16 12 13 12 15 11 16 14 10 6
11 13 16 13 11 14 14 14 14 14 15 15 16 16 11 5 3 7 9 10 11 12 12 5 5 5 4 5 7 6 6 9 11 15 13 16 13 13 24 14 12 18 17 12 6
8 13 18 14 13 14 16 16 15 15 14 13 12 11 3 3 3 5 9 12 10 12 11 9 5 5 5 5 4 5 9 14 11 16 14 19 22 17 21 20 19 14 22 18 8
13 16 15 13 15 17 18 17 15 15 13 12 9 3 2 4 6 11 8 9 12 8 4 10 11 5 7 6 7 9 16 16 17 18 13 16 18 26 28 21 22 22 18 23 19
13 11 12 15 18 18 15 13 13 12 10 5 2 2 2 2 5 6 11 13 7 9 7 5 7 4 3 5 5 5 4 7 3 4 7 8 19 18 15 12 18 19 19 19 24
11 14 16 15 14 14 14 13 10 5 6 5 3 0 3 5 7 11 11 9 12 9 10 6 4 2 5 3 4 3 4 9 13 8 8 8 20 6 8 6 14 10 13 17 16
11 14 13 14 14 14 14 8 4 5 3 2 2 4 4 5 17 14 4 5 2 8 5 2 2 2 3 2 5 5 8 9 14 7 8 15 20 17 14 16 17 11 9 8 12
11 10 13 12 13 13 14 3 6 5 9 2 2 2 4 16 5 6 4 7 2 4 4 3 4 11 10 10 14 16 18 22 26 22 20 21 25 24 17 14 18 18 16 13 9
9 10 12 12 10 14 10 7 4 2 3 2 3 3 3 7 4 10 6 5 4 2 7 5 9 14 9 11 14 16 20 24 21 19 13 18 24 21 20 16 20 19 17 17 8
7 10 10 10 6 8 16 7 2 1 2 3 1 2 4 3 3 6 3 4 3 4 2 7 13 15 12 12 15 18 15 18 22 22 18 22 24 24 20 21 20 20 18 11 9
7 9 8 7 2 4 4 4 3 1 4 6 5 2 5 3 3 4 2 1 3 4 6 7 6 4 15 13 15 14 8 12 14 13 6 4 10 2 8 8 7 12 11 15 15
6 5 4 5 4 3 2 3 2 1 4 6 7 4 10 4 6 3 4 2 6 6 2 7 13 15 13 9 10 11 18 15 20 17 13 8 5 5 7 9 15 12 10 9 10
5 3 1 1 3 2 4 2 2 6 3 6 4 7 7 5 5 7 4 3 5 5 3 15 10 6 6 11 15 19 12 20 11 6 4 3 6 4 5 11 17 19 16 10 8
6 5 3 1 1 3 3 2 4 6 3 8 4 6 4 5 6 6 6 7 4 7 7 8 7 5 3 7 7 12 7 4 4 2 5 2 2 3 15 17 14 17 21 19 9
8 5 1 1 1 3 2 5 7 4 4 2 4 6 3 7 4 7 7 5 5 4 4 2 9 3 5 7 10 11 3 3 5 4 8 4 3 1 18 14 16 17 18 14 4
9 6 1 2 2 1 4 5 7 5 1 3 4 6 6 5 1 7 4 3 3 5 3 4 7 5 8 6 9 8 7 14 4 4 2 2 5 1 21 18 17 19 20 3 9
10 6 2 1 1 2 4 3 3 1 1 0 3 2 1 6 6 6 4 2 4 2 3 4 7 3 7 5 6 5 8 5 3 4 4 3 4 9 21 22 18 17 15 12 10
6 2 1 1 2 4 3 5 3 3 1 3 2 2 1 3 4 3 5 4 1 4 5 3 4 8 5 7 15 11 8 5 4 5 5 6 1 11 18 17 15 13 12 11 13
6 0 2 4 3 1 3 5 3 3 2 1 1 3 4 2 3 2 3 5 3 1 5 3 4 6 4 4 12 10 10 8 3 5 3 5 2 15 15 13 12 11 11 12 13
4 3 4 3 2 1 3 2 2 3 2 3 3 3 1 2 2 4 4 5 4 2 2 3 3 5 9 5 4 5 16 15 6 1 9 4 6 11 15 14 12 12 11 11 13
3 3 2 2 1 6 5 3 1 2 3 3 2 0 1 1 3 4 4 4 5 1 7 3 3 0 2 6 4 10 19 16 10 3 6 8 12 17 18 16 15 14 13 13 14
2 1 3 2 2 3 3 6 4 3 3 4 2 4 4 1 2 4 4 5 3 6 5 3 2 3 10 8 2 10 14 17 13 13 4 7 11 15 16 16 15 15 16 17 19
4 4 2 1 5 6 4 7 8 3 7 4 4 5 7 5 7 3 2 2 3 5 4 4 3 2 5 4 7 6 15 15 9 13 5 8 9 10 12 15 19 18 18 18 16
5 4 3 5 4 4 5 7 9 8 5 3 6 3 5 11 6 7 4 3 4 3 3 2 2 3 4 5 3 5 12 8 5 15 7 8 4 9 16 16 17 16 16 16 14
Wind_Direction
17 12 6 6 0 359 354 349 344 344 345 348 349 346 341 345 354 37 48 20 3 359 6 2 9 359 344 290 309 34 314 300 290 319 327 338 352 330 317 331 319 354 31 77 101
352 357 2 2 353 346 343 344 345 347 345 345 345 341 341 345 341 57 75 10 357 352 356 345 342 344 348 306 325 144 209 238 260 321 319 321 324 326 344 331 305 47 21 17 30
346 348 352 347 343 350 351 345 343 344 338 337 340 338 343 338 326 70 350 347 353 359 352 328 336 0 294 337 273 255 240 284 293 306 311 316 310 318 318 293 305 326 321 334 344
343 341 331 332 338 344 336 333 335 336 340 342 344 342 354 11 65 15 3 359 348 343 330 331 357 345 318 299 314 307 285 292 306 306 304 301 294 290 270 264 279 302 292 304 327
325 333 336 342 338 340 343 342 337 335 334 335 340 347 11 9 72 359 344 354 7 1 350 334 336 5 355 308 316 286 288 293 297 295 288 296 293 275 282 287 281 288 290 275 262
314 321 323 326 328 332 331 327 324 321 324 324 329 342 6 35 5 347 333 334 338 339 335 342 345 322 277 261 270 298 312 298 290 287 281 278 277 273 271 287 277 272 284 284 243
318 315 318 324 326 323 320 317 313 315 319 317 317 342 299 247 325 319 336 329 325 303 309 321 340 16 331 311 280 309 305 296 276 261 261 258 270 255 247 254 270 274 267 276 271
317 330 332 330 324 323 324 324 321 324 327 349 6 131 242 286 9 360 318 320 324 336 301 312 304 278 222 265 294 267 253 294 209 256 241 138 251 260 278 243 253 267 266 259 270
320 332 333 334 335 335 331 331 332 2 35 67 44 19 340 340 354 330 324 315 317 329 324 254 321 269 337 319 305 289 254 259 295 236 271 211 273 312 292 270 270 270 279 250 252
323 332 333 335 336 342 343 338 10 41 18 61 325 40 352 333 326 322 313 332 327 308 331 53 61 283 239 183 272 270 278 260 271 276 286 283 275 272 269 278 275 271 268 253 246
328 328 333 342 350 355 359 51 20 7 25 72 318 275 307 326 345 326 352 333 345 13 11 345 278 270 248 223 253 270 267 267 270 274 277 271 268 272 269 256 259 262 267 269 241
319 319 335 346 1 16 45 70 98 213 334 272 265 262 268 355 309 328 11 6 66 267 321 358 255 267 264 280 274 271 275 275 278 276 265 276 270 264 260 255 247 247 243 249 242
299 313 327 343 355 27 65 70 120 196 109 325 6 342 292 352 320 285 8 311 208 321 275 258 264 306 298 301 295 280 267 274 274 292 274 268 273 264 258 250 250 254 250 229 224
298 311 325 337 353 18 47 11 13 138 78 305 348 315 320 249 293 310 57 245 327 251 298 284 276 280 314 298 291 288 254 292 288 296 304 124 294 81 261 237 254 257 262 240 239
290 302 334 358 333 51 333 334 6 68 41 306 312 326 332 36 291 285 272 177 242 254 66 275 304 307 305 275 290 271 292 280 275 274 289 243 256 283 340 18 346 332 328 332 289
268 211 197 19 358 359 325 357 84 44 291 331 319 347 9 345 322 318 336 250 257 291 214 262 270 266 233 290 296 290 298 286 272 250 245 302 178 314 23 337 327 329 325 315 304
204 186 191 256 237 325 338 48 32 95 330 313 333 348 354 317 341 356 325 12 32 350 358 326 299 289 258 313 296 328 338 310 1 343 223 285 178 278 7 351 331 319 310 301 296
177 167 148 138 326 330 54 49 71 231 233 307 327 321 40 12 322 331 334 12 51 3 308 37 332 358 307 317 323 314 287 287 313 312 286 180 251 196 12 342 334 323 305 283 305
168 144 161 24 346 7 73 54 195 207 210 0 336 52 326 354 80 11 332 338 58 41 4 351 285 324 327 331 5 328 316 296 260 247 260 202 343 76 352 346 339 344 345 104 102
159 153 137 29 16 59 75 184 167 269 44 110 110 101 345 298 21 28 311 275 347 35 152 278 290 220 287 357 311 289 297 331 292 312 296 5 60 332 344 343 347 343 354 2 61
146 73 111 124 100 45 139 211 215 234 111 113 155 49 325 321 333 296 270 301 197 291 307 254 186 297 1 2 1 2 2 348 287 25 326 326 62 358 346 336 337 339 357 10 45
134 107 29 149 54 95 135 180 215 166 150 106 119 171 193 316 290 295 269 209 322 129 341 276 299 294 253 20 25 12 0 11 353 3 318 287 344 18 344 341 342 353 10 23 40
138 121 50 89 148 305 313 347 194 139 174 172 184 218 275 196 308 248 272 270 334 114 318 319 305 310 341 336 358 7 10 7 344 292 31 352 314 351 352 359 2 11 21 32 41
112 131 0 58 162 139 149 214 199 290 188 160 192 294 230 302 216 276 278 287 355 186 359 315 275 353 277 299 339 358 2 2 5 27 337 11 331 351 360 1 10 17 28 40 46
91 159 133 203 269 164 147 142 138 165 234 146 343 203 162 245 298 229 249 303 332 14 360 85 198 311 271 252 205 6 9 356 6 1 21 352 11 359 360 356 13 23 24 35 41
130 151 123 240 124 121 173 202 162 185 157 224 185 203 192 191 201 238 47 323 255 332 5 10 272 355 292 281 206 352 5 4 358 359 342 355 41 1 4 15 18 23 24 32 30
135 104 120 175 160 125 208 181 192 147 243 195 188 177 224 240 226 247 224 243 262 320 304 33 43 28 286 349 66 15 356 337 329 9 344 7 17 37 26 25 18 15 23 27 29